{"data":{"norad_id":41747,"intl_designator":"2016-053A","name":"INTELSAT 36 (IS-36)","alt_names":[],"object_type":"PAYLOAD","status":"ACTIVE","operator":null,"country":"ITSO","launch_date":"2016-08-24","launch_site_code":"FRGUI","launch_vehicle":null,"mission":null,"orbit_class":"UNKNOWN","rcs_meters":6.493,"size_class":null,"mass_kg":null,"dimensions":null,"purposes":["comms"],"wikipedia_slug":null,"has_3d_model":false,"image_url":null,"decayed_at":null,"tle_current":{"epoch":"2026-05-24T22:56:09.885408Z","epoch_age_seconds":75536,"freshness":"FRESH","line1":"1 41747U 16053A   26144.95566997 -.00000027  00000+0  00000+0 0  9999","line2":"2 41747   0.0120 348.4799 0001469 337.3045 329.3146  1.00269212 35725","mean_motion":1.00269212,"eccentricity":0.0001469,"inclination_deg":0.012,"raan_deg":348.4799,"arg_perigee_deg":337.3045,"mean_anomaly_deg":329.3146,"bstar":0,"rev_number":3572,"period_min":1436.1337555939,"perigee_km":35781.122176831,"apogee_km":35793.510387005,"semimajor_km":42165.453281918,"source":"CELESTRAK","updated_at":"2026-05-25T13:38:14.335041Z"}}}